カタログに戻る

SATCOM 3 DEB

運用中HEO
NORAD 38688·DEBRIS·🇺🇸 United States

打ち上げ Dec 7, 1979 から Cape Canaveral Space Force Station

Loading…

次のパス (今後24時間)

TLE

最新Source: Space-Track

元期: Sep 14, 2026, 01:41 UTC

1 38688U 79101X   26257.07065177 -.00000162  00000-0  00000-0 0  9996
2 38688   8.2707  82.7055 4940827 107.5752 310.9153  1.80454821 13859

AllMySatでSATCOM 3 DEBをリアルタイム追跡

Download on the App Store